Offutt Air Force Base, NE

12:45 AM CDT on August 24, 2016 (GMT -0500)
Offutt Air Force Base

Weather History for KOFF - July, 2013

Change the Weather History Date:

Wednesday, July 10, 2013

  Actual Average Record
Temperature  
Mean Temperature 75 °F -  
Max Temperature 84 °F 84 °F 91 °F (2011)
Min Temperature 65 °F 65 °F 51 °F (2008)
Cooling Degree Days 10    
Growing Degree Days 25 (Base 50)    
Moisture  
Dew Point 65 °F    
Average Humidity 69    
Maximum Humidity 94    
Minimum Humidity 48    
Precipitation  
Precipitation 0.00 in - - ()
Sea Level Pressure  
Sea Level Pressure 30.03 in    
Wind  
Wind Speed 7 mph (NE)    
Max Wind Speed 13 mph    
Max Gust Speed 21 mph    
Visibility 10 miles    
Events      
Averages and records for this station are not official NWS values.
T = Trace of Precipitation, MM = Missing Value Source: NWS Daily Summary

Daily Weather History Graph

Daily Weather History Graph

Search for Another Location

Airport or City:

Trip Planner

Search our weather history database for the weather conditions in past years. The results will help you decide how hot, cold, wet, or windy it might be!

Date:

Astronomy

Jul. 10, 2013 Rise Set
Actual Time 6:00 AM CDT 8:57 PM CDT
Civil Twilight 5:27 AM CDT 9:30 PM CDT
Nautical Twilight 4:45 AM CDT 10:11 PM CDT
Astronomical Twilight 3:56 AM CDT 11:00 PM CDT
Moon 8:24 AM CDT (7/10) 10:05 PM CDT (7/10)
Length of Visible Light 16h 02m
Length of Day
14h 56m
Waxing Crescent, 5% of the Moon is Illuminated
Jul 10
Waxing Crescent
Jul 15
First Quarter
Jul 22
Full
Jul 29
Last Quarter
Aug 6
New

Hourly Weather History & Observations

Time (CDT) Temp. Heat Index Dew Point Humidity Pressure Visibility Wind Dir Wind Speed Gust Speed Precip Events Conditions
12:58 AM 80.2 °F 83.7 °F 71.1 °F 73% 29.94 in 10.0 mi North 9.2 mph - N/A   Partly Cloudy
1:58 AM 78.6 °F - 69.3 °F 73% 29.97 in 10.0 mi North 8.1 mph - N/A   Clear
2:58 AM 76.3 °F - 68.7 °F 77% 29.99 in 10.0 mi NNW 5.8 mph - N/A   Partly Cloudy
3:58 AM 73.4 °F - 68.0 °F 83% 30.00 in 10.0 mi NNW 6.9 mph - N/A   Clear
4:58 AM 74.8 °F - 66.9 °F 76% 30.00 in 10.0 mi NNW 8.1 mph - N/A   Clear
5:58 AM 72.0 °F - 66.4 °F 83% 30.01 in 10.0 mi North 3.5 mph - N/A   Clear
6:58 AM 72.1 °F - 67.3 °F 85% 30.04 in 10.0 mi NNE 3.5 mph - N/A   Clear
7:58 AM 74.1 °F - 66.4 °F 77% 30.03 in 10.0 mi NNE 12.7 mph 20.7 mph N/A   Clear
8:58 AM 75.4 °F - 64.8 °F 69% 30.04 in 10.0 mi NNE 11.5 mph - N/A   Clear
9:56 AM 77.0 °F - 64.4 °F 65% 30.07 in 10.0 mi NE 8.1 mph - N/A   Clear
10:56 AM 78.8 °F - 66.2 °F 65% 30.08 in 10.0 mi ENE 8.1 mph - N/A   Clear
11:56 AM 80.6 °F 82.3 °F 64.4 °F 58% 30.09 in 10.0 mi ENE 6.9 mph - N/A   Clear
12:56 PM 82.4 °F 83.9 °F 64.4 °F 54% 30.10 in 10.0 mi ENE 9.2 mph - N/A   Clear
2:58 PM 84.9 °F 85.9 °F 63.3 °F 48% 30.08 in 10.0 mi Variable 4.6 mph - N/A   Partly Cloudy
3:58 PM 83.8 °F 84.9 °F 63.5 °F 50% 30.06 in 10.0 mi NE 6.9 mph - N/A   Clear
4:58 PM 83.3 °F 84.4 °F 63.3 °F 51% 30.05 in 10.0 mi NNE 4.6 mph - N/A   Clear
5:58 PM 82.2 °F 83.5 °F 63.5 °F 53% 30.04 in 10.0 mi NE 4.6 mph - N/A   Clear
6:58 PM 82.8 °F 83.8 °F 63.0 °F 51% 30.01 in 10.0 mi ENE 5.8 mph - N/A   Clear
7:58 PM 79.9 °F - 62.8 °F 56% 29.99 in 10.0 mi East 6.9 mph - N/A   Clear
8:58 PM 73.6 °F - 63.3 °F 70% 30.01 in 10.0 mi ESE 3.5 mph - N/A   Clear
9:58 PM 67.6 °F - 64.0 °F 88% 30.04 in 10.0 mi Calm Calm - N/A   Clear
10:58 PM 66.0 °F - 64.2 °F 94% 30.06 in 10.0 mi NE 1.2 mph - N/A   Clear
11:58 PM 65.1 °F - 63.3 °F 94% 30.06 in 10.0 mi Calm Calm - N/A   Clear